Location: Waldport
(44.4270°N, 124.0680°W)
Time: 03:43:10
(UTC-07:00)

Amateur Radio Satellites - All Passes

Search period start: 20 August 2014 03:13
Search period end: 21 August 2014 03:13
Location: Waldport, 44.4270°N, 124.0680°W

Satellite Date Start Highest point End Downlink Frequencies (MHz)
Time Altitude Azimuth
ITAMSAT 1 20 Aug 03:17:06 03:22:09 52° 100° (E) 03:27:11 435.822 SSB
Uribyol 2 20 Aug 03:30:06 03:35:17 73° 103° (ESE) 03:40:27 436.500 FM
AO-Echo 20 Aug 03:33:43 03:38:30 83° 104° (ESE) 03:43:12 ?
AO-27 20 Aug 03:42:52 03:48:05 89° 105° (ESE) 03:53:16 436.795 MHz FM
Oscar 16 20 Aug 03:44:40 03:49:31 41° 292° (WNW) 03:54:21 437.025 USB, Beacon 2401.1428
JAS-1B 20 Aug 03:47:37 03:55:26 73° 102° (ESE) 04:01:54 435.800 - 435.900 CW/SSB
Sapphire 20 Aug 03:54:23 03:58:57 26° 44° (NE) 04:03:29 437.095 MHz 1200 baud AX-25 AFSK
OPAL 20 Aug 04:00:44 04:05:26 43° 66° (ENE) 04:10:13 ?
TMSAT-1 20 Aug 04:03:21 04:08:27 47° 99° (E) 04:13:31 436.925 FM
Uosat F 20 Aug 04:15:59 04:17:42 12° 88° (E) 04:19:24 435.120 FM
AO-7 20 Aug 04:17:53 04:23:40 20° 90° (E) 04:29:23 29.400 - 29.500 MHz
PCSat 20 Aug 04:24:53 04:30:05 44° 51° (NE) 04:35:15 145.825 MHz
KITSAT 1 20 Aug 04:26:02 04:33:13 34° 321° (NW) 04:40:27 435.175 FM
Saudisat 1A 20 Aug 04:39:24 04:41:10 12° 330° (NNW) 04:42:56 436.775 MHz
Gurwin Techsat 1B 20 Aug 04:43:49 04:49:03 59° 289° (WNW) 04:54:15 435.225 FM
Oscar 19 20 Aug 04:53:13 04:55:20 13° 304° (NW) 04:57:27 437.125 CW, 437.150 USB
ITAMSAT 1 20 Aug 04:57:21 05:01:18 23° 298° (WNW) 05:05:15 435.822 SSB
Uribyol 2 20 Aug 05:10:57 05:14:11 17° 301° (WNW) 05:17:25 436.500 FM
AO-Echo 20 Aug 05:14:28 05:16:36 13° 302° (WNW) 05:18:42 ?
AO-27 20 Aug 05:24:17 05:26:51 14° 303° (WNW) 05:29:26 436.795 MHz FM
STRAND 1 20 Aug 05:28:43 05:30:31 12° 56° (NE) 05:32:20 ?
Sapphire 20 Aug 05:37:24 05:42:44 59° 244° (WSW) 05:48:03 437.095 MHz 1200 baud AX-25 AFSK
JAS-1B 20 Aug 05:39:03 05:45:07 25° 306° (NW) 05:50:27 435.800 - 435.900 CW/SSB
OPAL 20 Aug 05:40:24 05:44:29 25° 264° (W) 05:48:38 ?
TMSAT-1 20 Aug 05:43:49 05:48:06 26° 297° (WNW) 05:52:23 436.925 FM
Uosat F 20 Aug 05:52:07 05:57:09 86° 285° (WNW) 06:02:09 435.120 FM
PCSat 20 Aug 06:08:37 06:13:20 31° 250° (WSW) 06:18:01 145.825 MHz
AO-7 20 Aug 06:09:07 06:17:29 89° 289° (WNW) 06:25:46 29.400 - 29.500 MHz
SO-50 20 Aug 06:15:38 06:18:41 18° 111° (ESE) 06:21:46 436.795 FM
KITSAT 1 20 Aug 06:26:51 06:31:35 16° 350° (N) 06:36:18 435.175 FM
Hamsat 20 Aug 06:37:58 06:41:49 29° 95° (E) 06:45:37 145.90 MHz
JAS-2 20 Aug 06:40:08 06:44:31 27° 94° (E) 06:48:56 435.800 - 435.900 CW/SSB, 435.910 FM
STRAND 1 20 Aug 07:03:46 07:08:52 79° 74° (ENE) 07:14:00 ?
Uosat F 20 Aug 07:33:04 07:35:10 13° 304° (WNW) 07:37:15 435.120 FM
SO-67 20 Aug 07:38:23 07:40:46 17° 93° (E) 07:43:08 435.3500 MHz FM
UOSAT-12 20 Aug 07:42:17 07:43:13 11° 106° (ESE) 07:44:08 437.025 FM, 437.400 FM
RS-15 20 Aug 07:54:02 07:55:44 10° 93° (E) 07:57:26 29.354 - 29.394 USB, Beacon 29.352 USB
SO-50 20 Aug 07:54:23 07:58:48 57° 309° (NW) 08:03:20 436.795 FM
AO-7 20 Aug 08:03:06 08:09:13 24° 310° (NW) 08:15:20 29.400 - 29.500 MHz
Hamsat 20 Aug 08:13:58 08:17:42 28° 292° (WNW) 08:21:25 145.90 MHz
JAS-2 20 Aug 08:25:01 08:29:47 37° 293° (WNW) 08:34:33 435.800 - 435.900 CW/SSB, 435.910 FM
KITSAT 1 20 Aug 08:25:14 08:30:46 19° 21° (NNE) 08:36:17 435.175 FM
STRAND 1 20 Aug 08:46:13 08:48:40 13° 271° (W) 08:51:07 ?
HO-68 20 Aug 08:58:09 09:02:35 17° 89° (E) 09:06:59 435.675 MHz FM
SO-67 20 Aug 09:10:50 09:13:53 29° 289° (WNW) 09:16:54 435.3500 MHz FM
UOSAT-12 20 Aug 09:17:56 09:22:33 85° 124° (SE) 09:27:18 437.025 FM, 437.400 FM
SO-50 20 Aug 09:38:16 09:40:23 13° 331° (NNW) 09:42:32 436.795 FM
Saudisat 1A 20 Aug 09:42:16 09:46:06 28° 43° (NE) 09:49:55 436.775 MHz
RS-15 20 Aug 09:54:44 10:05:26 57° 114° (ESE) 10:15:57 29.354 - 29.394 USB, Beacon 29.352 USB
KITSAT 1 20 Aug 10:20:34 10:28:24 50° 47° (NE) 10:36:09 435.175 FM
UKube-1 20 Aug 10:43:45 10:48:06 70° 103° (ESE) 10:52:25 145.840 MHz, 145.915 MHz
HO-68 20 Aug 10:44:00 10:51:12 90° 107° (ESE) 10:58:22 435.675 MHz FM
FUNcube-1 20 Aug 10:56:29 11:00:06 24° 94° (E) 11:03:45 145.950 - 145.970 MHz USB
UOSAT-12 20 Aug 11:00:02 11:03:21 19° 324° (NW) 11:06:41 437.025 FM, 437.400 FM
Oscar 11 20 Aug 11:02:04 11:06:27 69° 102° (ESE) 11:10:47 145.825 FM, Beacon 2401.500 USB
Saudisat 1A 20 Aug 11:21:39 11:25:49 41° 242° (WSW) 11:29:56 436.775 MHz
RS-15 20 Aug 12:07:25 12:18:01 50° 319° (NW) 12:28:36 29.354 - 29.394 USB, Beacon 29.352 USB
KITSAT 1 20 Aug 12:16:12 12:23:45 45° 248° (WSW) 12:31:15 435.175 FM
UKube-1 20 Aug 12:21:39 12:23:45 13° 300° (WNW) 12:25:52 145.840 MHz, 145.915 MHz
FUNcube-1 20 Aug 12:32:34 12:36:33 34° 290° (WNW) 12:40:35 145.950 - 145.970 MHz USB
HO-68 20 Aug 12:33:03 12:38:01 21° 307° (NW) 12:42:59 435.675 MHz FM
Oscar 11 20 Aug 12:39:56 12:42:05 14° 299° (WNW) 12:44:14 145.825 FM, Beacon 2401.500 USB
JAS-1B 20 Aug 12:43:58 12:50:48 22° 51° (NE) 12:57:17 435.800 - 435.900 CW/SSB
Oscar 19 20 Aug 12:52:18 12:56:22 24° 63° (ENE) 13:00:28 437.125 CW, 437.150 USB
ITAMSAT 1 20 Aug 13:00:35 13:03:12 14° 57° (ENE) 13:05:50 435.822 SSB
AO-Echo 20 Aug 13:11:25 13:14:49 18° 61° (ENE) 13:18:10 ?
Uribyol 2 20 Aug 13:12:28 13:15:58 19° 60° (ENE) 13:19:29 436.500 FM
Oscar 16 20 Aug 13:24:07 13:29:00 46° 69° (ENE) 13:33:56 437.025 USB, Beacon 2401.1428
AO-27 20 Aug 13:24:52 13:28:52 23° 62° (ENE) 13:32:52 436.795 MHz FM
TMSAT-1 20 Aug 13:49:33 13:51:56 13° 56° (ENE) 13:54:19 436.925 FM
RS-15 20 Aug 14:25:00 14:33:46 26° 351° (N) 14:42:38 29.354 - 29.394 USB, Beacon 29.352 USB
Gurwin Techsat 1B 20 Aug 14:27:22 14:32:09 36° 67° (ENE) 14:36:58 435.225 FM
JAS-1B 20 Aug 14:30:02 14:39:55 74° 71° (ENE) 14:49:16 435.800 - 435.900 CW/SSB
Oscar 19 20 Aug 14:30:28 14:35:25 48° 261° (W) 14:40:25 437.125 CW, 437.150 USB
ITAMSAT 1 20 Aug 14:36:47 14:41:58 88° 255° (WSW) 14:47:11 435.822 SSB
SO-50 20 Aug 14:44:06 14:48:23 32° 44° (NE) 14:52:42 436.795 FM
AO-Echo 20 Aug 14:47:57 14:53:07 66° 258° (WSW) 14:58:10 ?
Uribyol 2 20 Aug 14:49:50 14:54:57 65° 258° (WSW) 15:00:06 436.500 FM
AO-27 20 Aug 15:03:00 15:08:02 51° 260° (W) 15:13:07 436.795 MHz FM
Oscar 16 20 Aug 15:04:30 15:08:35 24° 267° (W) 15:12:41 437.025 USB, Beacon 2401.1428
AO-7 20 Aug 15:18:22 15:25:41 36° 57° (ENE) 15:32:59 29.400 - 29.500 MHz
MaSat-1 20 Aug 15:21:37 15:24:56 19° 102° (ESE) 15:28:26 437.345 MHz
TMSAT-1 20 Aug 15:25:45 15:31:02 84° 75° (ENE) 15:36:22 436.925 FM
Uosat F 20 Aug 15:29:56 15:33:41 22° 62° (ENE) 15:37:26 435.120 FM
ISS 20 Aug 15:34:31 15:37:48 64° 145° (SE) 15:41:07 145.800 FM
UOSAT-12 20 Aug 16:06:39 16:10:16 21° 38° (NE) 16:13:51 437.025 FM, 437.400 FM
Gurwin Techsat 1B 20 Aug 16:07:24 16:12:07 32° 264° (W) 16:16:53 435.225 FM
ITAMSAT 1 20 Aug 16:20:38 16:22:12 11° 273° (W) 16:23:46 435.822 SSB
JAS-1B 20 Aug 16:22:28 16:30:55 32° 269° (W) 16:39:08 435.800 - 435.900 CW/SSB
SO-50 20 Aug 16:24:34 16:29:03 41° 242° (WSW) 16:33:34 436.795 FM
RS-15 20 Aug 16:40:51 16:50:33 34° 26° (NNE) 17:00:27 29.354 - 29.394 USB, Beacon 29.352 USB
JAS-2 20 Aug 16:55:08 16:59:24 19° 60° (ENE) 17:03:22 435.800 - 435.900 CW/SSB, 435.910 FM
MaSat-1 20 Aug 16:56:47 17:01:31 60° 301° (WNW) 17:06:39 437.345 MHz
Uosat F 20 Aug 17:07:13 17:12:07 52° 260° (W) 17:17:02 435.120 FM
TMSAT-1 20 Aug 17:09:13 17:11:38 13° 272° (W) 17:14:03 436.925 FM
AO-7 20 Aug 17:09:51 17:18:04 61° 256° (WSW) 17:26:20 29.400 - 29.500 MHz
ISS 20 Aug 17:11:44 17:14:44 31° 344° (NNW) 17:17:45 145.800 FM
Hamsat 20 Aug 17:33:09 17:36:43 26° 67° (ENE) 17:40:19 145.90 MHz
UOSAT-12 20 Aug 17:46:11 17:50:55 72° 238° (WSW) 17:55:34 437.025 FM, 437.400 FM
OPAL 20 Aug 17:47:11 17:52:24 73° 105° (ESE) 17:57:37 ?
JAS-2 20 Aug 18:37:09 18:43:57 82° 256° (WSW) 18:49:58 435.800 - 435.900 CW/SSB, 435.910 FM
MaSat-1 20 Aug 18:37:32 18:39:48 13° 322° (NW) 18:42:06 437.345 MHz
Sapphire 20 Aug 18:40:36 18:43:13 14° 103° (ESE) 18:45:50 437.095 MHz 1200 baud AX-25 AFSK
ISS 20 Aug 18:49:24 18:52:09 23° 4° (N) 18:54:54 145.800 FM
RS-15 20 Aug 18:53:38 19:04:45 83° 54° (NE) 19:16:16 29.354 - 29.394 USB, Beacon 29.352 USB
Hamsat 20 Aug 19:08:49 19:12:35 30° 265° (W) 19:16:25 145.90 MHz
PCSat 20 Aug 19:09:05 19:13:32 27° 109° (ESE) 19:18:01 145.825 MHz
AO-7 20 Aug 19:10:55 19:12:34 11° 276° (W) 19:14:13 29.400 - 29.500 MHz
STRAND 1 20 Aug 19:13:24 19:17:26 23° 93° (E) 19:21:26 ?
OPAL 20 Aug 19:27:19 19:30:43 18° 303° (WNW) 19:34:08 ?
HO-68 20 Aug 19:29:44 19:34:14 18° 51° (NE) 19:38:44 435.675 MHz FM
SO-67 20 Aug 19:44:51 19:48:18 70° 259° (W) 19:51:47 435.3500 MHz FM
Oscar 10/S400 20 Aug 20:14:46 20:33:13 45° 154° (SSE) 21:34:11 145.825 - 145.975 CW/USB, Beacon 145.810 USB
Sapphire 20 Aug 20:20:26 20:25:51 88° 301° (WNW) 20:31:18 437.095 MHz 1200 baud AX-25 AFSK
ISS 20 Aug 20:26:09 20:29:25 49° 24° (NNE) 20:32:40 145.800 FM
JAS-2 20 Aug 20:26:47 20:29:41 13° 271° (W) 20:32:27 435.800 - 435.900 CW/SSB, 435.910 FM
PCSat 20 Aug 20:51:26 20:56:40 49° 307° (NW) 21:01:57 145.825 MHz
STRAND 1 20 Aug 20:51:58 20:56:50 46° 291° (WNW) 21:01:41 ?
RS-15 20 Aug 21:07:04 21:15:56 29° 256° (WSW) 21:25:05 29.354 - 29.394 USB, Beacon 29.352 USB
HO-68 20 Aug 21:13:44 21:20:53 80° 71° (ENE) 21:28:03 435.675 MHz FM
UKube-1 20 Aug 21:40:41 21:45:02 75° 74° (ENE) 21:49:23 145.840 MHz, 145.915 MHz
FUNcube-1 20 Aug 21:55:08 21:58:25 23° 66° (ENE) 22:01:44 145.950 - 145.970 MHz USB
Oscar 11 20 Aug 21:58:32 22:02:49 66° 74° (ENE) 22:07:08 145.825 FM, Beacon 2401.500 USB
ISS 20 Aug 22:03:08 22:06:01 27° 222° (SW) 22:08:55 145.800 FM
Sapphire 20 Aug 22:06:17 22:10:04 19° 322° (NW) 22:13:52 437.095 MHz 1200 baud AX-25 AFSK
PCSat 20 Aug 22:39:11 22:41:27 13° 330° (NNW) 22:43:44 145.825 MHz
HO-68 20 Aug 23:04:18 23:09:20 20° 270° (W) 23:14:24 435.675 MHz FM
UKube-1 20 Aug 23:20:38 23:21:45 11° 271° (W) 23:22:52 145.840 MHz, 145.915 MHz
FUNcube-1 20 Aug 23:30:57 23:34:41 32° 264° (W) 23:38:28 145.950 - 145.970 MHz USB
Oscar 11 20 Aug 23:37:40 23:39:27 12° 271° (W) 23:41:15 145.825 FM, Beacon 2401.500 USB
MaSat-1 20 Aug 23:38:12 23:39:44 11° 36° (NE) 23:41:13 437.345 MHz
KITSAT 1 21 Aug 00:52:37 00:58:40 24° 104° (ESE) 01:04:43 435.175 FM
MaSat-1 21 Aug 01:13:13 01:18:07 54° 58° (ENE) 01:22:28 437.345 MHz
Saudisat 1A 21 Aug 01:29:35 01:33:33 33° 116° (ESE) 01:37:31 436.775 MHz
Oscar 16 21 Aug 01:35:36 01:38:21 14° 89° (E) 01:41:06 437.025 USB, Beacon 2401.1428
JAS-1B 21 Aug 02:18:02 02:22:32 17° 83° (E) 02:26:37 435.800 - 435.900 CW/SSB
Oscar 19 21 Aug 02:40:08 02:45:15 54° 100° (E) 02:50:19 437.125 CW, 437.150 USB
Gurwin Techsat 1B 21 Aug 02:43:52 02:45:44 12° 87° (E) 02:47:37 435.225 FM
KITSAT 1 21 Aug 02:45:04 02:53:10 81° 304° (WNW) 03:01:20 435.175 FM
ITAMSAT 1 21 Aug 02:48:26 02:52:55 29° 95° (E) 02:57:21 435.822 SSB
MaSat-1 21 Aug 02:51:23 02:54:42 19° 259° (WSW) 02:57:45 437.345 MHz
AO-Echo 21 Aug 02:53:58 02:58:16 33° 96° (E) 03:02:30 ?
Uribyol 2 21 Aug 03:00:58 03:05:49 39° 98° (E) 03:10:40 436.500 FM
